Weather History for KI39 - December, 2012

Change the Weather History Date:

Sunday, December 2, 2012

  Actual Average (KLOZ) Record (KLOZ)
Temperature  
Mean Temperature 62 °F 42 °F  
Max Temperature 68 °F 52 °F 78 °F (1982)
Min Temperature 55 °F 32 °F 10 °F (1960)
Degree Days  
Heating Degree Days 4 23  
Month to date heating degree days 46  
Since 1 July heating degree days 876  
Cooling Degree Days 0 0  
Month to date cooling degree days 0  
Growing Degree Days 12 (Base 50)    
Moisture  
Dew Point 48 °F    
Average Humidity 62    
Maximum Humidity 72    
Minimum Humidity 52    
Precipitation  
Precipitation 0.00 in 0.14 in 2.33 in (1991)
Month to date precipitation 0.28  
Sea Level Pressure  
Sea Level Pressure 30.18 in    
Wind  
Wind Speed 13 mph (SSW)    
Max Wind Speed 21 mph    
Max Gust Speed 33 mph    
Visibility 10 miles    
Events      
T = Trace of Precipitation, MM = Missing Value Source: NWS Daily Summary

Daily Weather History Graph

Daily Weather History Graph

Search for Another Location

Airport or City:

Trip Planner

Search our weather history database for the weather conditions in past years. The results will help you decide how hot, cold, wet, or windy it might be!

Date:

Astronomy

Dec. 02, 2012 Rise Set
Actual Time 7:34 AM EST 5:18 PM EST
Civil Twilight 7:06 AM EST 5:47 PM EST
Nautical Twilight 6:33 AM EST 6:20 PM EST
Astronomical Twilight 6:01 AM EST 6:51 PM EST
Moon 9:03 PM EST (12/2) 10:25 AM EST (12/2)
Length of Visible Light 10h 41m
Length of Day
9h 43m
Waning Gibbous, 86% of the Moon is Illuminated
Dec 2
Waning Gibbous
Dec 6
Last Quarter
Dec 13
New
Dec 20
First Quarter
Dec 28
Full

Hourly Weather History & Observations

Time (EST) Temp. Dew Point Humidity Pressure Visibility Wind Dir Wind Speed Gust Speed Precip Events Conditions
12:15 AM 55.4 °F 44.6 °F 67% 30.22 in 10.0 mi South 9.2 mph 16.1 mph N/A   Clear
12:35 AM 55.4 °F 44.6 °F 67% 30.22 in 10.0 mi SSW 11.5 mph - N/A   Clear
12:55 AM 57.2 °F 44.6 °F 63% 30.22 in 10.0 mi SSW 11.5 mph 16.1 mph N/A   Clear
1:15 AM 57.2 °F 44.6 °F 63% 30.22 in 10.0 mi South 9.2 mph 17.3 mph N/A   Clear
1:35 AM 57.2 °F 44.6 °F 63% 30.22 in 10.0 mi SSW 12.7 mph 17.3 mph N/A   Clear
1:55 AM 57.2 °F 44.6 °F 63% 30.22 in 10.0 mi SSW 11.5 mph - N/A   Clear
2:15 AM 57.2 °F 44.6 °F 63% 30.22 in 10.0 mi SSW 11.5 mph 19.6 mph N/A   Clear
2:35 AM 57.2 °F 44.6 °F 63% 30.22 in 10.0 mi SSW 13.8 mph 18.4 mph N/A   Clear
2:55 AM 55.4 °F 44.6 °F 67% 30.22 in 10.0 mi SSW 12.7 mph 17.3 mph N/A   Clear
3:15 AM 55.4 °F 44.6 °F 67% 30.22 in 10.0 mi SSW 11.5 mph 18.4 mph N/A   Clear
3:35 AM 55.4 °F 44.6 °F 67% 30.22 in 10.0 mi South 13.8 mph 19.6 mph N/A   Clear
3:55 AM 55.4 °F 44.6 °F 67% 30.21 in 10.0 mi South 13.8 mph 19.6 mph N/A   Clear
4:15 AM 55.4 °F 44.6 °F 67% 30.20 in 10.0 mi South 12.7 mph 20.7 mph N/A   Clear
4:35 AM 57.2 °F 44.6 °F 63% 30.20 in 10.0 mi South 12.7 mph - N/A   Mostly Cloudy
4:55 AM 57.2 °F 44.6 °F 63% 30.20 in 10.0 mi South 15.0 mph 19.6 mph N/A   Overcast
5:15 AM 57.2 °F 44.6 °F 63% 30.20 in 10.0 mi South 13.8 mph - N/A   Scattered Clouds
5:35 AM 55.4 °F 44.6 °F 67% 30.20 in 10.0 mi SSW 11.5 mph 19.6 mph N/A   Clear
5:55 AM 55.4 °F 44.6 °F 67% 30.19 in 10.0 mi South 17.3 mph 25.3 mph N/A   Clear
6:15 AM 57.2 °F 44.6 °F 63% 30.19 in 10.0 mi South 16.1 mph 21.9 mph N/A   Clear
6:35 AM 57.2 °F 44.6 °F 63% 30.19 in 10.0 mi South 13.8 mph 20.7 mph N/A   Scattered Clouds
6:55 AM 57.2 °F 44.6 °F 63% 30.18 in 10.0 mi South 16.1 mph 23.0 mph N/A   Scattered Clouds
7:15 AM 57.2 °F 44.6 °F 63% 30.19 in 10.0 mi SSW 16.1 mph 23.0 mph N/A   Clear
7:35 AM 57.2 °F 44.6 °F 63% 30.19 in 10.0 mi SSW 16.1 mph 21.9 mph N/A   Scattered Clouds
7:55 AM 57.2 °F 44.6 °F 63% 30.18 in 10.0 mi South 16.1 mph 25.3 mph N/A   Scattered Clouds
8:15 AM 57.2 °F 44.6 °F 63% 30.19 in 10.0 mi SSW 16.1 mph 21.9 mph N/A   Clear
8:35 AM 57.2 °F 46.4 °F 67% 30.19 in 10.0 mi SSW 18.4 mph 25.3 mph N/A   Clear
8:55 AM 59.0 °F 46.4 °F 63% 30.19 in 10.0 mi SSW 17.3 mph 25.3 mph N/A   Clear
9:15 AM 59.0 °F 46.4 °F 63% 30.19 in 10.0 mi SSW 20.7 mph 26.5 mph N/A   Clear
9:35 AM 60.8 °F 46.4 °F 59% 30.19 in 10.0 mi SSW 17.3 mph 26.5 mph N/A   Clear
9:55 AM 60.8 °F 46.4 °F 59% 30.19 in 10.0 mi SSW 17.3 mph 33.4 mph N/A   Scattered Clouds
10:15 AM 60.8 °F 46.4 °F 59% 30.19 in 10.0 mi SSW 20.7 mph 32.2 mph N/A   Scattered Clouds
10:35 AM 62.6 °F 48.2 °F 59% 30.19 in 10.0 mi SW 13.8 mph 29.9 mph N/A   Clear
11:15 AM 64.4 °F 50.0 °F 59% 30.19 in 10.0 mi SSW 19.6 mph 29.9 mph N/A   Mostly Cloudy
11:35 AM 64.4 °F 50.0 °F 59% 30.18 in 10.0 mi SW 20.7 mph 31.1 mph N/A   Overcast
11:55 AM 64.4 °F 50.0 °F 59% 30.17 in 10.0 mi SSW 15.0 mph 25.3 mph N/A   Mostly Cloudy
12:35 PM 66.2 °F 50.0 °F 56% 30.15 in 10.0 mi SW 18.4 mph 25.3 mph N/A   Overcast
12:55 PM 66.2 °F 50.0 °F 56% 30.15 in 10.0 mi SW 19.6 mph 32.2 mph N/A   Overcast
1:15 PM 68.0 °F 50.0 °F 52% 30.14 in 10.0 mi SSW 17.3 mph 27.6 mph N/A   Overcast
1:55 PM 68.0 °F 50.0 °F 52% 30.13 in 10.0 mi SW 12.7 mph 21.9 mph N/A   Overcast
2:15 PM 68.0 °F 50.0 °F 52% 30.13 in 10.0 mi SW 19.6 mph 26.5 mph N/A   Overcast
2:35 PM 68.0 °F 50.0 °F 52% 30.13 in 10.0 mi SSW 16.1 mph 23.0 mph N/A   Overcast
2:55 PM 66.2 °F 50.0 °F 56% 30.13 in 10.0 mi SW 13.8 mph 21.9 mph N/A   Overcast
3:15 PM 68.0 °F 50.0 °F 52% 30.12 in 10.0 mi SW 13.8 mph 24.2 mph N/A   Overcast
3:35 PM 66.2 °F 50.0 °F 56% 30.12 in 10.0 mi SW 13.8 mph 21.9 mph N/A   Overcast
3:55 PM 66.2 °F 50.0 °F 56% 30.13 in 10.0 mi SW 16.1 mph 25.3 mph N/A   Overcast
4:15 PM 66.2 °F 50.0 °F 56% 30.13 in 10.0 mi SW 12.7 mph 20.7 mph N/A   Overcast
4:35 PM 66.2 °F 50.0 °F 56% 30.13 in 10.0 mi SW 16.1 mph - N/A   Overcast
4:55 PM 66.2 °F 50.0 °F 56% 30.13 in 10.0 mi SW 10.4 mph 16.1 mph N/A   Overcast
5:15 PM 66.2 °F 50.0 °F 56% 30.14 in 10.0 mi SW 12.7 mph 17.3 mph N/A   Overcast
5:35 PM 66.2 °F 50.0 °F 56% 30.14 in 10.0 mi SW 11.5 mph 18.4 mph N/A   Overcast
5:55 PM 64.4 °F 50.0 °F 59% 30.14 in 10.0 mi SW 10.4 mph 18.4 mph N/A   Overcast
6:15 PM 62.6 °F 51.8 °F 68% 30.14 in 10.0 mi SW 8.1 mph - N/A   Overcast
6:35 PM 62.6 °F 51.8 °F 68% 30.15 in 10.0 mi SSW 8.1 mph - N/A   Overcast
6:55 PM 62.6 °F 51.8 °F 68% 30.17 in 10.0 mi WSW 9.2 mph - N/A   Overcast
7:15 PM 60.8 °F 51.8 °F 72% 30.17 in 10.0 mi SW 6.9 mph - N/A   Overcast
7:55 PM 62.6 °F 51.8 °F 68% 30.17 in 10.0 mi SW 10.4 mph - N/A   Overcast
8:15 PM 62.6 °F 50.0 °F 63% 30.17 in 10.0 mi SSW 11.5 mph - N/A   Overcast
8:35 PM 62.6 °F 50.0 °F 63% 30.17 in 10.0 mi SW 12.7 mph - N/A   Overcast
8:55 PM 62.6 °F 50.0 °F 63% 30.17 in 10.0 mi SSW 10.4 mph - N/A   Overcast
9:15 PM 62.6 °F 50.0 °F 63% 30.17 in 10.0 mi SSW 9.2 mph - N/A   Overcast
9:35 PM 62.6 °F 50.0 °F 63% 30.19 in 10.0 mi SW 6.9 mph - N/A   Overcast
9:55 PM 62.6 °F 50.0 °F 63% 30.19 in 10.0 mi SSW 9.2 mph - N/A   Overcast
10:15 PM 62.6 °F 50.0 °F 63% 30.19 in 10.0 mi SW 10.4 mph - N/A   Overcast
10:35 PM 62.6 °F 50.0 °F 63% 30.20 in 10.0 mi SW 10.4 mph - N/A   Overcast
10:55 PM 62.6 °F 50.0 °F 63% 30.19 in 10.0 mi SSW 9.2 mph - N/A   Overcast
11:15 PM 62.6 °F 51.8 °F 68% 30.20 in 10.0 mi SW 11.5 mph - N/A   Overcast
11:35 PM 62.6 °F 51.8 °F 68% 30.20 in 10.0 mi SSW 9.2 mph - N/A   Overcast
11:55 PM 62.6 °F 50.0 °F 63% 30.20 in 10.0 mi SSW 9.2 mph - N/A   Overcast